Time,TemperatureF,DewpointF,PressureIn,WindDirection,WindDirectionDegrees,WindSpeedMPH,WindSpeedGustMPH,Humidity,HourlyPrecipIn,Conditions,Clouds,dailyrainin,SoftwareType,DateUTC
2013-01-29 00:04:00,69.9,62.1,28.85,SW,233,3.8,6.5,76,0.00,,,0.00,WSDL version 420,2013-01-29 06:04:00,
2013-01-29 00:09:00,70.0,62.0,28.85,West,280,4.0,7.4,75,0.00,,,0.00,WSDL version 420,2013-01-29 06:09:00,
2013-01-29 00:14:00,70.0,61.7,28.82,SSW,203,3.3,7.4,75,0.00,,,0.00,WSDL version 420,2013-01-29 06:14:00,
2013-01-29 00:19:00,70.0,61.7,28.82,South,188,2.4,6.5,75,0.00,,,0.00,WSDL version 420,2013-01-29 06:19:00,
2013-01-29 00:24:00,70.0,61.7,28.82,South,175,2.7,4.7,75,0.00,,,0.00,WSDL version 420,2013-01-29 06:24:00,
2013-01-29 00:29:00,70.0,61.7,28.82,SW,233,2.7,6.3,75,0.00,,,0.00,WSDL version 420,2013-01-29 06:29:00,
2013-01-29 00:34:00,70.0,61.7,28.82,SSE,160,2.3,6.3,75,0.00,,,0.00,WSDL version 420,2013-01-29 06:34:00,
2013-01-29 00:39:00,70.0,61.7,28.82,SSW,203,2.4,4.9,75,0.00,,,0.00,WSDL version 420,2013-01-29 06:39:00,
2013-01-29 00:44:00,70.0,61.7,28.82,South,186,2.9,4.3,75,0.00,,,0.00,WSDL version 420,2013-01-29 06:44:00,
2013-01-29 00:49:00,70.0,61.7,28.82,SSW,208,2.3,3.8,75,0.00,,,0.00,WSDL version 420,2013-01-29 06:49:00,
2013-01-29 00:54:00,70.0,61.7,28.82,South,191,2.6,4.0,75,0.00,,,0.00,WSDL version 420,2013-01-29 06:54:00,
2013-01-29 00:59:00,70.0,61.7,28.82,SW,215,2.3,4.0,75,0.00,,,0.00,WSDL version 420,2013-01-29 06:59:00,
2013-01-29 01:04:00,69.9,61.6,28.82,South,180,2.5,3.8,75,0.00,,,0.00,WSDL version 420,2013-01-29 07:04:00,
2013-01-29 01:09:00,69.9,61.6,28.82,SSW,203,2.7,4.9,75,0.00,,,0.00,WSDL version 420,2013-01-29 07:09:00,
2013-01-29 01:14:00,69.8,61.8,28.79,SSW,213,3.3,5.4,76,0.00,,,0.00,WSDL version 420,2013-01-29 07:14:00,
2013-01-29 01:19:00,69.8,61.8,28.79,SSW,194,2.9,5.4,76,0.00,,,0.00,WSDL version 420,2013-01-29 07:19:00,
2013-01-29 01:24:00,69.6,61.9,28.79,SSW,198,2.7,4.0,77,0.00,,,0.00,WSDL version 420,2013-01-29 07:24:00,
2013-01-29 01:29:00,69.6,62.1,28.79,South,190,2.3,4.3,77,0.00,,,0.00,WSDL version 420,2013-01-29 07:29:00,
2013-01-29 01:34:00,69.6,62.1,28.79,SSE,148,2.6,4.3,77,0.00,,,0.00,WSDL version 420,2013-01-29 07:34:00,
2013-01-29 01:39:00,69.6,62.1,28.79,SSE,163,2.5,4.9,77,0.00,,,0.00,WSDL version 420,2013-01-29 07:39:00,
2013-01-29 01:44:00,69.6,62.1,28.79,SW,215,2.7,4.9,77,0.00,,,0.00,WSDL version 420,2013-01-29 07:44:00,
2013-01-29 01:49:00,69.5,62.3,28.79,NNW,346,3.6,6.3,78,0.00,,,0.00,WSDL version 420,2013-01-29 07:49:00,
2013-01-29 01:54:00,69.4,62.3,28.79,South,178,3.2,6.3,78,0.00,,,0.00,WSDL version 420,2013-01-29 07:54:00,
2013-01-29 01:59:00,69.4,62.3,28.79,South,180,3.2,5.8,78,0.00,,,0.00,WSDL version 420,2013-01-29 07:59:00,
2013-01-29 02:04:00,69.4,62.3,28.79,South,188,3.4,6.3,78,0.00,,,0.00,WSDL version 420,2013-01-29 08:04:00,
2013-01-29 02:09:00,69.4,62.3,28.79,SSE,165,2.5,8.1,78,0.00,,,0.00,WSDL version 420,2013-01-29 08:09:00,
2013-01-29 02:14:00,69.6,62.4,28.79,SW,215,2.7,8.1,78,0.00,,,0.00,WSDL version 420,2013-01-29 08:14:00,
2013-01-29 02:19:00,69.6,62.4,28.79,South,180,2.7,4.3,78,0.00,,,0.00,WSDL version 420,2013-01-29 08:19:00,
2013-01-29 02:24:00,69.6,62.5,28.79,SE,135,3.3,5.4,78,0.00,,,0.00,WSDL version 420,2013-01-29 08:24:00,
2013-01-29 02:29:00,69.7,62.4,28.76,South,186,3.6,5.4,77,0.00,,,0.00,WSDL version 420,2013-01-29 08:29:00,
2013-01-29 02:34:00,69.8,62.3,28.76,SSW,200,2.9,5.4,77,0.00,,,0.00,WSDL version 420,2013-01-29 08:34:00,
2013-01-29 02:39:00,69.8,62.3,28.76,SW,225,2.9,5.4,77,0.00,,,0.00,WSDL version 420,2013-01-29 08:39:00,
2013-01-29 02:44:00,69.7,62.4,28.79,SSW,210,3.2,5.8,77,0.00,,,0.00,WSDL version 420,2013-01-29 08:44:00,
2013-01-29 02:49:00,69.8,62.3,28.79,NNE,23,3.2,5.8,77,0.00,,,0.00,WSDL version 420,2013-01-29 08:49:00,
2013-01-29 02:54:00,69.7,62.4,28.79,SSW,193,3.7,6.0,78,0.00,,,0.00,WSDL version 420,2013-01-29 08:54:00,
2013-01-29 02:59:00,69.6,62.5,28.76,WSW,253,3.7,6.0,78,0.00,,,0.00,WSDL version 420,2013-01-29 08:59:00,
2013-01-29 03:04:00,69.6,62.5,28.76,SW,214,2.7,5.6,78,0.00,,,0.00,WSDL version 420,2013-01-29 09:04:00,
2013-01-29 03:09:00,69.6,62.5,28.76,WNW,283,2.8,5.8,78,0.00,,,0.00,WSDL version 420,2013-01-29 09:09:00,
2013-01-29 03:14:00,69.6,62.5,28.76,South,188,3.3,5.8,78,0.00,,,0.00,WSDL version 420,2013-01-29 09:14:00,
2013-01-29 03:19:00,69.6,62.5,28.76,South,183,2.9,5.6,78,0.00,,,0.00,WSDL version 420,2013-01-29 09:19:00,
2013-01-29 03:24:00,69.5,62.4,28.76,WSW,256,3.6,7.2,78,0.00,,,0.00,WSDL version 420,2013-01-29 09:24:00,
2013-01-29 03:29:00,69.4,62.4,28.76,SW,228,3.9,7.2,79,0.00,,,0.00,WSDL version 420,2013-01-29 09:29:00,
2013-01-29 03:34:00,69.4,62.5,28.76,NNE,28,3.8,6.0,79,0.00,,,0.00,WSDL version 420,2013-01-29 09:34:00,
2013-01-29 03:39:00,69.5,62.7,28.76,South,183,4.1,6.5,79,0.00,,,0.00,WSDL version 420,2013-01-29 09:39:00,
2013-01-29 03:44:00,69.6,62.8,28.76,SSW,205,3.9,6.9,79,0.00,,,0.00,WSDL version 420,2013-01-29 09:44:00,
2013-01-29 03:49:00,69.5,62.3,28.76,SSW,208,3.2,6.9,78,0.00,,,0.00,WSDL version 420,2013-01-29 09:49:00,
2013-01-29 03:54:00,69.4,62.6,28.76,SSW,203,3.7,6.0,79,0.00,,,0.00,WSDL version 420,2013-01-29 09:54:00,
2013-01-29 03:59:00,69.4,62.6,28.76,South,183,3.4,6.0,79,0.00,,,0.00,WSDL version 420,2013-01-29 09:59:00,
2013-01-29 04:04:00,69.4,62.6,28.76,SSE,168,3.0,5.6,79,0.00,,,0.00,WSDL version 420,2013-01-29 10:04:00,
2013-01-29 04:09:00,69.4,62.6,28.76,South,175,3.4,4.7,79,0.00,,,0.00,WSDL version 420,2013-01-29 10:09:00,
2013-01-29 04:14:00,69.4,62.6,28.76,South,183,2.9,4.9,79,0.00,,,0.00,WSDL version 420,2013-01-29 10:14:00,
2013-01-29 04:19:00,69.4,62.6,28.76,South,186,3.8,7.4,79,0.00,,,0.00,WSDL version 420,2013-01-29 10:19:00,
2013-01-29 04:24:00,69.4,62.6,28.76,South,188,3.0,7.4,79,0.00,,,0.00,WSDL version 420,2013-01-29 10:24:00,
2013-01-29 04:29:00,69.3,62.5,28.76,SE,125,3.3,7.4,79,0.00,,,0.00,WSDL version 420,2013-01-29 10:29:00,
2013-01-29 04:34:00,69.3,62.5,28.76,SSW,200,3.2,7.4,79,0.00,,,0.00,WSDL version 420,2013-01-29 10:34:00,
2013-01-29 04:39:00,69.1,62.6,28.76,South,183,2.7,5.8,80,0.00,,,0.00,WSDL version 420,2013-01-29 10:39:00,
2013-01-29 04:44:00,69.2,62.7,28.76,SSW,198,2.5,5.4,80,0.00,,,0.00,WSDL version 420,2013-01-29 10:44:00,
2013-01-29 04:49:00,69.1,62.7,28.76,South,174,2.6,5.4,80,0.00,,,0.00,WSDL version 420,2013-01-29 10:49:00,
2013-01-29 04:54:00,69.1,62.7,28.76,South,178,2.4,4.7,80,0.00,,,0.00,WSDL version 420,2013-01-29 10:54:00,
2013-01-29 04:59:00,69.1,62.7,28.76,South,188,3.0,5.4,80,0.00,,,0.00,WSDL version 420,2013-01-29 10:59:00,
2013-01-29 05:04:00,69.1,62.7,28.76,South,174,3.0,5.4,80,0.00,,,0.00,WSDL version 420,2013-01-29 11:04:00,
2013-01-29 05:10:00,69.1,62.7,28.76,South,180,2.6,5.8,80,0.00,,,0.00,WSDL version 420,2013-01-29 11:10:00,
2013-01-29 05:14:00,69.1,62.6,28.73,South,190,2.6,5.8,80,0.00,,,0.00,WSDL version 420,2013-01-29 11:14:00,
2013-01-29 05:19:00,68.9,62.5,28.73,South,186,3.1,5.8,80,0.00,,,0.00,WSDL version 420,2013-01-29 11:19:00,
2013-01-29 05:24:00,68.9,62.5,28.73,South,180,2.9,5.8,80,0.00,,,0.00,WSDL version 420,2013-01-29 11:24:00,
2013-01-29 05:29:00,68.9,62.5,28.73,South,190,3.2,5.6,80,0.00,,,0.00,WSDL version 420,2013-01-29 11:29:00,
2013-01-29 05:34:00,68.9,62.5,28.73,SSW,208,4.0,7.8,80,0.00,,,0.00,WSDL version 420,2013-01-29 11:34:00,
2013-01-29 05:39:00,69.0,62.6,28.73,South,183,2.8,7.8,80,0.00,,,0.00,WSDL version 420,2013-01-29 11:39:00,
2013-01-29 05:44:00,68.9,62.5,28.73,SSW,208,3.2,7.2,80,0.00,,,0.00,WSDL version 420,2013-01-29 11:44:00,
2013-01-29 05:49:00,69.1,62.7,28.73,SSW,203,3.1,7.2,80,0.00,,,0.00,WSDL version 420,2013-01-29 11:49:00,
2013-01-29 05:54:00,69.0,62.6,28.73,South,177,2.4,6.0,80,0.00,,,0.00,WSDL version 420,2013-01-29 11:54:00,
2013-01-29 05:59:00,68.9,62.5,28.73,South,183,2.1,4.3,80,0.00,,,0.00,WSDL version 420,2013-01-29 11:59:00,
2013-01-29 06:04:00,68.9,62.5,28.73,SSW,208,3.1,4.3,80,0.00,,,0.00,WSDL version 420,2013-01-29 12:04:00,
2013-01-29 06:09:00,68.9,62.5,28.73,South,186,3.2,5.8,80,0.00,,,0.00,WSDL version 420,2013-01-29 12:09:00,
2013-01-29 06:14:00,68.9,62.5,28.73,South,170,2.7,5.8,80,0.00,,,0.00,WSDL version 420,2013-01-29 12:14:00,
2013-01-29 06:19:00,68.9,62.5,28.73,SSW,203,3.4,5.6,80,0.00,,,0.00,WSDL version 420,2013-01-29 12:19:00,
2013-01-29 06:24:00,68.9,62.5,28.73,SSW,208,2.6,5.6,80,0.00,,,0.00,WSDL version 420,2013-01-29 12:24:00,
2013-01-29 06:29:00,68.9,62.5,28.73,SSW,198,2.9,4.9,80,0.00,,,0.00,WSDL version 420,2013-01-29 12:29:00,
2013-01-29 06:34:00,68.9,62.5,28.73,South,186,3.0,4.9,80,0.00,,,0.00,WSDL version 420,2013-01-29 12:34:00,
2013-01-29 06:39:00,68.9,62.5,28.73,South,175,2.3,5.8,80,0.00,,,0.00,WSDL version 420,2013-01-29 12:39:00,
2013-01-29 06:44:00,68.9,62.4,28.73,SSW,197,3.0,5.8,80,0.00,,,0.00,WSDL version 420,2013-01-29 12:44:00,
2013-01-29 06:49:00,68.8,62.3,28.73,SSW,203,2.5,5.4,79,0.00,,,0.00,WSDL version 420,2013-01-29 12:49:00,
2013-01-29 06:54:00,68.7,62.3,28.73,South,174,3.3,5.4,80,0.00,,,0.00,WSDL version 420,2013-01-29 12:54:00,
2013-01-29 06:59:00,68.9,62.5,28.73,SSW,198,2.6,5.4,80,0.00,,,0.00,WSDL version 420,2013-01-29 12:59:00,
2013-01-29 07:04:00,68.9,62.2,28.73,South,188,2.0,5.4,79,0.00,,,0.00,WSDL version 420,2013-01-29 13:04:00,
2013-01-29 07:09:00,68.9,62.1,28.73,SSE,166,2.5,4.3,79,0.00,,,0.00,WSDL version 420,2013-01-29 13:09:00,
2013-01-29 07:14:00,68.9,62.1,28.73,SSW,203,3.2,5.6,79,0.00,,,0.00,WSDL version 420,2013-01-29 13:14:00,
2013-01-29 07:19:00,68.9,62.1,28.73,SSW,205,2.6,5.6,79,0.00,,,0.00,WSDL version 420,2013-01-29 13:19:00,
2013-01-29 07:24:00,68.9,62.1,28.73,SE,143,2.7,4.7,79,0.00,,,0.00,WSDL version 420,2013-01-29 13:24:00,
2013-01-29 07:29:00,68.9,62.1,28.70,SSE,160,2.5,5.4,79,0.00,,,0.00,WSDL version 420,2013-01-29 13:29:00,
2013-01-29 07:34:00,68.9,62.0,28.70,SSE,153,2.8,5.4,78,0.00,,,0.00,WSDL version 420,2013-01-29 13:34:00,
2013-01-29 07:39:00,69.0,61.8,28.70,South,188,2.8,5.6,78,0.00,,,0.00,WSDL version 420,2013-01-29 13:39:00,
2013-01-29 07:44:00,69.1,61.9,28.70,SSW,203,2.9,7.8,78,0.00,,,0.00,WSDL version 420,2013-01-29 13:44:00,
2013-01-29 07:49:00,69.1,61.9,28.70,SSW,205,2.8,7.8,78,0.00,,,0.00,WSDL version 420,2013-01-29 13:49:00,
2013-01-29 07:54:00,69.1,61.9,28.70,SSW,194,2.4,6.5,78,0.00,,,0.00,WSDL version 420,2013-01-29 13:54:00,
2013-01-29 07:59:00,69.2,62.0,28.70,SSE,153,3.1,6.5,78,0.00,,,0.00,WSDL version 420,2013-01-29 13:59:00,
2013-01-29 08:04:00,69.3,62.1,28.70,South,183,2.8,7.2,78,0.00,,,0.00,WSDL version 420,2013-01-29 14:04:00,
2013-01-29 08:09:00,69.3,62.1,28.70,South,169,2.7,7.2,78,0.00,,,0.00,WSDL version 420,2013-01-29 14:09:00,
2013-01-29 08:14:00,69.3,62.1,28.67,South,186,2.9,6.5,78,0.00,,,0.00,WSDL version 420,2013-01-29 14:14:00,
2013-01-29 08:19:00,69.3,62.1,28.67,SSE,155,2.9,6.5,78,0.00,,,0.00,WSDL version 420,2013-01-29 14:19:00,
2013-01-29 08:24:00,69.3,62.1,28.67,SSE,163,3.2,5.8,78,0.00,,,0.00,WSDL version 420,2013-01-29 14:24:00,
2013-01-29 08:29:00,69.3,62.1,28.67,South,177,2.7,5.8,78,0.00,,,0.00,WSDL version 420,2013-01-29 14:29:00,
2013-01-29 08:34:00,69.3,62.1,28.67,SSW,194,3.9,5.4,78,0.00,,,0.00,WSDL version 420,2013-01-29 14:34:00,
2013-01-29 08:39:00,69.4,62.0,28.67,NNW,340,3.6,7.8,77,0.00,,,0.00,WSDL version 420,2013-01-29 14:39:00,
2013-01-29 08:44:00,69.4,61.9,28.67,SW,218,3.6,7.8,77,0.00,,,0.00,WSDL version 420,2013-01-29 14:44:00,
2013-01-29 08:49:00,69.5,62.0,28.67,SW,215,2.6,6.0,77,0.00,,,0.00,WSDL version 420,2013-01-29 14:49:00,
2013-01-29 08:54:00,69.6,62.1,28.67,SSW,203,2.8,5.8,77,0.00,,,0.00,WSDL version 420,2013-01-29 14:54:00,
2013-01-29 08:59:00,69.6,62.1,28.67,SE,141,2.9,6.3,77,0.00,,,0.00,WSDL version 420,2013-01-29 14:59:00,
2013-01-29 09:04:00,69.7,62.0,28.67,SSE,166,1.9,6.3,76,0.00,,,0.00,WSDL version 420,2013-01-29 15:04:00,
2013-01-29 09:09:00,69.8,61.9,28.67,SW,223,2.2,6.3,76,0.00,,,0.00,WSDL version 420,2013-01-29 15:09:00,
2013-01-29 09:14:00,70.0,62.1,28.67,SW,217,2.4,6.3,76,0.00,,,0.00,WSDL version 420,2013-01-29 15:14:00,
2013-01-29 09:19:00,70.1,62.1,28.67,SW,215,2.7,6.0,76,0.00,,,0.00,WSDL version 420,2013-01-29 15:19:00,
2013-01-29 09:24:00,70.2,61.9,28.67,South,188,2.7,6.0,75,0.00,,,0.00,WSDL version 420,2013-01-29 15:24:00,
2013-01-29 09:29:00,70.2,61.9,28.67,South,180,4.1,5.6,75,0.00,,,0.00,WSDL version 420,2013-01-29 15:29:00,
2013-01-29 09:34:00,70.3,61.8,28.67,South,178,2.3,5.6,74,0.00,,,0.00,WSDL version 420,2013-01-29 15:34:00,
2013-01-29 09:39:00,70.5,61.9,28.67,WSW,242,2.8,5.4,74,0.00,,,0.00,WSDL version 420,2013-01-29 15:39:00,
2013-01-29 09:44:00,70.5,61.8,28.67,SSW,198,2.9,5.6,74,0.00,,,0.00,WSDL version 420,2013-01-29 15:44:00,
2013-01-29 09:49:00,70.5,61.8,28.67,SSW,206,3.2,5.6,74,0.00,,,0.00,WSDL version 420,2013-01-29 15:49:00,
2013-01-29 09:54:00,70.5,61.8,28.67,South,190,3.8,6.0,74,0.00,,,0.00,WSDL version 420,2013-01-29 15:54:00,
2013-01-29 09:59:00,70.5,61.8,28.70,SSW,193,3.5,6.0,74,0.00,,,0.00,WSDL version 420,2013-01-29 15:59:00,
2013-01-29 10:04:00,70.5,61.6,28.70,South,188,3.7,7.6,73,0.00,,,0.00,WSDL version 420,2013-01-29 16:04:00,
2013-01-29 10:09:00,70.6,61.5,28.70,West,270,3.8,7.6,73,0.00,,,0.00,WSDL version 420,2013-01-29 16:09:00,
2013-01-29 10:14:00,70.7,61.6,28.67,South,188,3.7,6.3,73,0.00,,,0.00,WSDL version 420,2013-01-29 16:14:00,
2013-01-29 10:19:00,70.9,61.4,28.67,SSW,213,3.0,5.8,72,0.00,,,0.00,WSDL version 420,2013-01-29 16:19:00,
2013-01-29 10:24:00,70.9,61.4,28.67,South,186,3.7,4.7,72,0.00,,,0.00,WSDL version 420,2013-01-29 16:24:00,
2013-01-29 10:29:00,71.2,61.7,28.67,WSW,253,3.3,5.8,72,0.00,,,0.00,WSDL version 420,2013-01-29 16:29:00,
2013-01-29 10:34:00,71.7,61.8,28.67,SSW,208,2.8,6.9,71,0.00,,,0.00,WSDL version 420,2013-01-29 16:34:00,
2013-01-29 10:39:00,72.5,62.2,28.67,SE,141,2.9,6.9,70,0.00,,,0.00,WSDL version 420,2013-01-29 16:39:00,
2013-01-29 10:44:00,72.8,62.2,28.67,SSW,200,3.7,6.0,69,0.00,,,0.00,WSDL version 420,2013-01-29 16:44:00,
2013-01-29 10:49:00,73.4,62.5,28.67,WSW,242,2.8,5.8,68,0.00,,,0.00,WSDL version 420,2013-01-29 16:49:00,
2013-01-29 10:54:00,73.7,62.4,28.67,SSW,200,3.5,5.8,67,0.00,,,0.00,WSDL version 420,2013-01-29 16:54:00,
2013-01-29 10:59:00,74.4,62.5,28.67,SSW,200,3.6,7.6,66,0.00,,,0.00,WSDL version 420,2013-01-29 16:59:00,
2013-01-29 11:04:00,74.7,62.3,28.67,South,169,3.5,7.6,65,0.00,,,0.00,WSDL version 420,2013-01-29 17:04:00,
2013-01-29 11:09:00,74.4,61.8,28.67,SSW,194,4.4,6.5,64,0.00,,,0.00,WSDL version 420,2013-01-29 17:09:00,
2013-01-29 11:14:00,74.8,61.7,28.64,South,183,3.8,7.2,63,0.00,,,0.00,WSDL version 420,2013-01-29 17:14:00,
2013-01-29 11:19:00,75.5,61.7,28.64,SSW,198,4.2,7.2,62,0.00,,,0.00,WSDL version 420,2013-01-29 17:19:00,
2013-01-29 11:24:00,75.6,61.1,28.64,SSW,211,3.9,6.5,60,0.00,,,0.00,WSDL version 420,2013-01-29 17:24:00,
2013-01-29 11:29:00,76.1,61.4,28.64,South,178,3.9,7.8,60,0.00,,,0.00,WSDL version 420,2013-01-29 17:29:00,
2013-01-29 11:34:00,75.7,60.6,28.64,SSW,196,3.5,7.8,60,0.00,,,0.00,WSDL version 420,2013-01-29 17:34:00,
2013-01-29 11:39:00,75.7,60.8,28.64,NNE,18,4.3,9.4,59,0.00,,,0.00,WSDL version 420,2013-01-29 17:39:00,
2013-01-29 11:44:00,76.3,60.8,28.64,SSW,198,4.2,9.4,58,0.00,,,0.00,WSDL version 420,2013-01-29 17:44:00,
2013-01-29 11:49:00,77.2,61.1,28.64,SW,222,4.2,6.7,56,0.00,,,0.00,WSDL version 420,2013-01-29 17:49:00,
2013-01-29 11:54:00,77.8,60.6,28.64,SSW,203,3.9,7.4,55,0.00,,,0.00,WSDL version 420,2013-01-29 17:54:00,
2013-01-29 11:59:00,78.6,61.0,28.61,SW,215,3.1,7.4,54,0.00,,,0.00,WSDL version 420,2013-01-29 17:59:00,
2013-01-29 12:04:00,78.4,59.6,28.61,SSW,203,4.5,6.3,52,0.00,,,0.00,WSDL version 420,2013-01-29 18:04:00,
2013-01-29 12:09:00,78.0,59.5,28.61,South,174,4.1,6.5,53,0.00,,,0.00,WSDL version 420,2013-01-29 18:09:00,
2013-01-29 12:14:00,77.4,58.9,28.61,SW,228,4.3,6.5,53,0.00,,,0.00,WSDL version 420,2013-01-29 18:14:00,
2013-01-29 12:19:00,77.2,58.8,28.61,SW,233,3.6,8.1,53,0.00,,,0.00,WSDL version 420,2013-01-29 18:19:00,
2013-01-29 12:24:00,76.9,58.7,28.61,South,188,4.1,8.1,54,0.00,,,0.00,WSDL version 420,2013-01-29 18:24:00,
2013-01-29 12:29:00,76.7,58.5,28.59,South,183,4.4,8.9,54,0.00,,,0.00,WSDL version 420,2013-01-29 18:29:00,
2013-01-29 12:34:00,76.9,58.6,28.59,SSW,200,3.6,8.9,53,0.00,,,0.00,WSDL version 420,2013-01-29 18:34:00,
2013-01-29 12:39:00,77.3,58.5,28.59,SW,218,5.3,7.4,51,0.00,,,0.00,WSDL version 420,2013-01-29 18:39:00,
2013-01-29 12:44:00,77.4,58.3,28.56,South,186,4.3,7.4,52,0.00,,,0.00,WSDL version 420,2013-01-29 18:44:00,
2013-01-29 12:49:00,77.6,58.1,28.56,South,183,4.8,8.7,50,0.00,,,0.00,WSDL version 420,2013-01-29 18:49:00,
2013-01-29 12:54:00,77.6,58.1,28.56,SSW,208,4.6,8.7,51,0.00,,,0.00,WSDL version 420,2013-01-29 18:54:00,
2013-01-29 12:59:00,77.8,58.0,28.56,South,185,4.0,7.6,51,0.00,,,0.00,WSDL version 420,2013-01-29 18:59:00,
2013-01-29 13:04:00,77.9,58.2,28.56,SSW,198,3.3,6.5,51,0.00,,,0.00,WSDL version 420,2013-01-29 19:04:00,
2013-01-29 13:09:00,77.6,57.7,28.56,SSW,194,3.8,8.5,50,0.00,,,0.00,WSDL version 420,2013-01-29 19:09:00,
2013-01-29 13:19:00,78.3,58.0,28.56,WSW,242,3.2,7.4,50,0.00,,,0.00,WSDL version 420,2013-01-29 19:19:00,
2013-01-29 13:24:00,79.0,58.7,28.56,SSW,210,3.5,6.0,49,0.00,,,0.00,WSDL version 420,2013-01-29 19:24:00,
2013-01-29 13:29:00,78.9,57.9,28.53,SSW,200,4.3,6.0,49,0.00,,,0.00,WSDL version 420,2013-01-29 19:29:00,
2013-01-29 13:34:00,78.7,57.7,28.53,SW,217,4.0,5.8,48,0.00,,,0.00,WSDL version 420,2013-01-29 19:34:00,
2013-01-29 13:39:00,78.8,57.2,28.53,SW,214,3.6,5.8,47,0.00,,,0.00,WSDL version 420,2013-01-29 19:39:00,
2013-01-29 13:44:00,78.3,56.8,28.53,SSW,194,2.8,7.2,48,0.00,,,0.00,WSDL version 420,2013-01-29 19:44:00,
2013-01-29 13:49:00,78.1,56.9,28.53,WSW,250,3.6,7.2,48,0.00,,,0.00,WSDL version 420,2013-01-29 19:49:00,
2013-01-29 13:54:00,77.9,56.6,28.53,SSW,194,3.8,7.4,48,0.00,,,0.00,WSDL version 420,2013-01-29 19:54:00,
2013-01-29 13:59:00,77.9,57.2,28.53,SE,138,3.7,7.4,49,0.00,,,0.00,WSDL version 420,2013-01-29 19:59:00,
2013-01-29 14:04:00,78.7,57.6,28.53,SSW,210,4.1,7.2,48,0.00,,,0.00,WSDL version 420,2013-01-29 20:04:00,
2013-01-29 14:09:00,79.6,57.9,28.53,SW,231,3.3,6.3,48,0.00,,,0.00,WSDL version 420,2013-01-29 20:09:00,
2013-01-29 14:14:00,79.1,57.2,28.53,SW,220,4.0,6.0,47,0.00,,,0.00,WSDL version 420,2013-01-29 20:14:00,
2013-01-29 14:19:00,78.8,56.9,28.53,South,191,3.6,7.4,47,0.00,,,0.00,WSDL version 420,2013-01-29 20:19:00,
2013-01-29 14:24:00,78.5,56.6,28.53,SSW,200,3.5,9.6,47,0.00,,,0.00,WSDL version 420,2013-01-29 20:24:00,
2013-01-29 14:29:00,78.3,56.3,28.50,SSW,197,3.3,9.6,47,0.00,,,0.00,WSDL version 420,2013-01-29 20:29:00,
2013-01-29 14:34:00,78.4,56.2,28.50,SW,215,4.0,6.7,44,0.00,,,0.00,WSDL version 420,2013-01-29 20:34:00,
2013-01-29 14:39:00,78.8,55.4,28.50,SSW,205,3.6,7.2,44,0.00,,,0.00,WSDL version 420,2013-01-29 20:39:00,
2013-01-29 14:44:00,78.8,55.5,28.50,South,177,3.9,7.2,44,0.00,,,0.00,WSDL version 420,2013-01-29 20:44:00,
2013-01-29 14:49:00,79.1,55.4,28.50,SW,220,3.5,6.0,44,0.00,,,0.00,WSDL version 420,2013-01-29 20:49:00,
2013-01-29 14:54:00,79.3,55.7,28.50,South,188,2.5,6.0,44,0.00,,,0.00,WSDL version 420,2013-01-29 20:54:00,
2013-01-29 14:59:00,79.3,55.1,28.50,SSW,193,4.1,5.8,43,0.00,,,0.00,WSDL version 420,2013-01-29 20:59:00,
2013-01-29 15:04:00,79.3,54.5,28.50,SSW,194,3.6,5.8,42,0.00,,,0.00,WSDL version 420,2013-01-29 21:04:00,
2013-01-29 15:09:00,79.2,54.1,28.50,SSW,208,3.9,5.8,42,0.00,,,0.00,WSDL version 420,2013-01-29 21:09:00,
2013-01-29 15:14:00,79.3,54.2,28.50,SW,223,3.6,5.8,42,0.00,,,0.00,WSDL version 420,2013-01-29 21:14:00,
2013-01-29 15:19:00,79.1,53.8,28.50,SW,214,4.3,7.6,41,0.00,,,0.00,WSDL version 420,2013-01-29 21:19:00,
2013-01-29 15:24:00,79.0,54.0,28.50,SW,225,2.8,7.6,42,0.00,,,0.00,WSDL version 420,2013-01-29 21:24:00,
2013-01-29 15:29:00,79.0,53.7,28.50,South,180,4.2,6.3,41,0.00,,,0.00,WSDL version 420,2013-01-29 21:29:00,
2013-01-29 15:34:00,78.9,52.9,28.50,SW,228,3.6,5.8,40,0.00,,,0.00,WSDL version 420,2013-01-29 21:34:00,
2013-01-29 15:39:00,79.0,53.1,28.50,South,183,3.4,5.4,41,0.00,,,0.00,WSDL version 420,2013-01-29 21:39:00,
2013-01-29 15:44:00,79.0,52.6,28.50,SSW,213,3.7,6.3,40,0.00,,,0.00,WSDL version 420,2013-01-29 21:44:00,
2013-01-29 15:49:00,79.0,52.6,28.50,South,188,3.0,6.3,40,0.00,,,0.00,WSDL version 420,2013-01-29 21:49:00,
2013-01-29 15:54:00,79.2,52.8,28.50,SSW,210,3.3,5.8,40,0.00,,,0.00,WSDL version 420,2013-01-29 21:54:00,
2013-01-29 15:59:00,79.7,53.0,28.50,SW,218,2.9,5.8,38,0.00,,,0.00,WSDL version 420,2013-01-29 21:59:00,
2013-01-29 16:04:00,79.8,52.3,28.50,SSW,200,3.9,5.8,38,0.00,,,0.00,WSDL version 420,2013-01-29 22:04:00,
2013-01-29 16:09:00,79.6,52.5,28.50,SSW,213,2.6,5.8,39,0.00,,,0.00,WSDL version 420,2013-01-29 22:09:00,
2013-01-29 16:14:00,79.3,52.5,28.50,West,262,2.2,5.4,39,0.00,,,0.00,WSDL version 420,2013-01-29 22:14:00,
2013-01-29 16:19:00,78.9,51.5,28.50,WNW,290,4.8,7.6,34,0.00,,,0.00,WSDL version 420,2013-01-29 22:19:00,
2013-01-29 16:24:00,77.0,45.1,28.50,NW,318,5.3,7.6,31,0.00,,,0.00,WSDL version 420,2013-01-29 22:24:00,
2013-01-29 16:29:00,74.9,42.7,28.53,NW,323,4.4,7.6,31,0.00,,,0.00,WSDL version 420,2013-01-29 22:29:00,
2013-01-29 16:34:00,73.4,41.3,28.53,NW,318,4.6,6.7,32,0.00,,,0.00,WSDL version 420,2013-01-29 22:34:00,
2013-01-29 16:39:00,72.4,40.9,28.53,NW,318,5.1,6.7,32,0.00,,,0.00,WSDL version 420,2013-01-29 22:39:00,
2013-01-29 16:44:00,71.7,40.3,28.56,NW,310,2.9,6.5,32,0.00,,,0.00,WSDL version 420,2013-01-29 22:44:00,
2013-01-29 16:49:00,71.2,40.6,28.56,WNW,298,3.2,4.7,33,0.00,,,0.00,WSDL version 420,2013-01-29 22:49:00,
2013-01-29 16:54:00,70.9,40.2,28.56,NW,315,4.4,5.6,32,0.00,,,0.00,WSDL version 420,2013-01-29 22:54:00,
2013-01-29 16:59:00,70.3,39.9,28.56,NW,310,3.8,5.6,33,0.00,,,0.00,WSDL version 420,2013-01-29 22:59:00,
2013-01-29 17:04:00,69.9,39.5,28.56,NW,309,3.7,5.6,33,0.00,,,0.00,WSDL version 420,2013-01-29 23:04:00,
2013-01-29 17:09:00,69.5,39.2,28.56,WNW,300,4.6,7.2,33,0.00,,,0.00,WSDL version 420,2013-01-29 23:09:00,
2013-01-29 17:14:00,68.9,38.6,28.59,NW,307,5.8,7.2,33,0.00,,,0.00,WSDL version 420,2013-01-29 23:14:00,
2013-01-29 17:19:00,68.0,38.3,28.59,WNW,290,5.9,7.8,34,0.00,,,0.00,WSDL version 420,2013-01-29 23:19:00,
2013-01-29 17:24:00,67.0,38.5,28.59,WNW,295,4.9,7.8,35,0.00,,,0.00,WSDL version 420,2013-01-29 23:24:00,
2013-01-29 17:29:00,66.4,38.5,28.59,NW,325,4.3,6.7,36,0.00,,,0.00,WSDL version 420,2013-01-29 23:29:00,
2013-01-29 17:34:00,65.7,38.1,28.59,NW,321,5.1,6.7,36,0.00,,,0.00,WSDL version 420,2013-01-29 23:34:00,
2013-01-29 17:39:00,65.0,38.0,28.59,WNW,295,3.9,6.9,37,0.00,,,0.00,WSDL version 420,2013-01-29 23:39:00,
2013-01-29 17:44:00,64.4,37.6,28.59,North,358,4.6,6.9,37,0.00,,,0.00,WSDL version 420,2013-01-29 23:44:00,
2013-01-29 17:49:00,63.6,37.2,28.59,NW,312,4.6,7.2,38,0.00,,,0.00,WSDL version 420,2013-01-29 23:49:00,
2013-01-29 17:54:00,63.0,37.4,28.59,NW,310,4.3,7.2,39,0.00,,,0.00,WSDL version 420,2013-01-29 23:54:00,
2013-01-29 17:59:00,62.2,37.9,28.61,NW,309,5.1,7.8,42,0.00,,,0.00,WSDL version 420,2013-01-29 23:59:00,
2013-01-29 18:04:00,60.5,38.7,28.61,West,260,1.7,7.8,45,0.05,,,0.05,WSDL version 420,2013-01-30 00:04:00,
2013-01-29 18:09:00,59.1,38.6,28.61,WNW,298,2.6,6.5,47,0.12,,,0.12,WSDL version 420,2013-01-30 00:09:00,
2013-01-29 18:14:00,58.4,38.8,28.61,NW,323,2.4,4.7,49,0.12,,,0.12,WSDL version 420,2013-01-30 00:14:00,
2013-01-29 18:19:00,57.9,38.9,28.61,WNW,293,2.5,3.8,49,0.12,,,0.12,WSDL version 420,2013-01-30 00:19:00,
2013-01-29 18:24:00,57.7,38.7,28.61,NW,304,2.6,4.3,49,0.12,,,0.12,WSDL version 420,2013-01-30 00:24:00,
2013-01-29 18:29:00,57.6,38.6,28.61,NW,305,2.7,4.3,49,0.12,,,0.12,WSDL version 420,2013-01-30 00:29:00,
2013-01-29 18:34:00,57.6,38.5,28.61,WNW,302,3.0,4.3,49,0.12,,,0.12,WSDL version 420,2013-01-30 00:34:00,
2013-01-29 18:39:00,57.7,37.9,28.61,NW,305,3.4,4.7,47,0.12,,,0.12,WSDL version 420,2013-01-30 00:39:00,
2013-01-29 18:44:00,57.8,37.7,28.61,WNW,303,2.8,4.9,47,0.12,,,0.12,WSDL version 420,2013-01-30 00:44:00,
2013-01-29 18:49:00,57.9,37.6,28.61,NW,309,3.6,6.3,46,0.12,,,0.12,WSDL version 420,2013-01-30 00:49:00,
2013-01-29 18:54:00,58.1,37.3,28.61,NW,305,3.8,6.3,45,0.12,,,0.12,WSDL version 420,2013-01-30 00:54:00,
2013-01-29 18:59:00,58.2,36.8,28.61,NW,318,3.7,6.5,44,0.12,,,0.12,WSDL version 420,2013-01-30 00:59:00,
2013-01-29 19:04:00,58.3,36.2,28.61,NW,323,3.6,6.5,43,0.07,,,0.12,WSDL version 420,2013-01-30 01:04:00,
2013-01-29 19:09:00,58.5,35.4,28.61,NW,312,3.7,6.0,41,0.00,,,0.12,WSDL version 420,2013-01-30 01:09:00,
2013-01-29 19:14:00,58.5,34.4,28.61,WNW,303,3.6,6.0,39,0.00,,,0.12,WSDL version 420,2013-01-30 01:14:00,
2013-01-29 19:19:00,58.5,33.6,28.61,NW,308,3.2,5.6,39,0.00,,,0.12,WSDL version 420,2013-01-30 01:19:00,
2013-01-29 19:24:00,58.5,33.2,28.61,NW,312,3.4,4.7,38,0.00,,,0.12,WSDL version 420,2013-01-30 01:24:00,
2013-01-29 19:29:00,58.4,32.9,28.61,WNW,300,3.2,6.0,38,0.00,,,0.12,WSDL version 420,2013-01-30 01:29:00,
2013-01-29 19:34:00,58.3,32.8,28.61,WNW,290,3.3,6.0,38,0.00,,,0.12,WSDL version 420,2013-01-30 01:34:00,
2013-01-29 19:39:00,58.1,32.6,28.61,NW,310,2.6,6.0,38,0.00,,,0.12,WSDL version 420,2013-01-30 01:39:00,
2013-01-29 19:44:00,58.1,32.6,28.64,WNW,284,2.7,3.8,38,0.00,,,0.12,WSDL version 420,2013-01-30 01:44:00,
2013-01-29 19:49:00,58.1,32.6,28.64,WNW,293,2.8,3.8,38,0.00,,,0.12,WSDL version 420,2013-01-30 01:49:00,
2013-01-29 19:54:00,58.1,32.6,28.64,NW,313,3.1,4.9,38,0.00,,,0.12,WSDL version 420,2013-01-30 01:54:00,
2013-01-29 19:59:00,58.2,32.0,28.64,NW,307,3.1,5.8,37,0.00,,,0.12,WSDL version 420,2013-01-30 01:59:00,
2013-01-29 20:04:00,58.3,31.9,28.64,WNW,298,4.2,6.3,36,0.00,,,0.12,WSDL version 420,2013-01-30 02:04:00,
2013-01-29 20:09:00,58.6,31.7,28.64,WNW,298,3.6,6.5,36,0.00,,,0.12,WSDL version 420,2013-01-30 02:09:00,
2013-01-29 20:14:00,58.6,31.8,28.67,NW,305,3.1,6.5,36,0.00,,,0.12,WSDL version 420,2013-01-30 02:14:00,
2013-01-29 20:19:00,58.5,31.6,28.67,WNW,293,3.1,4.7,36,0.00,,,0.12,WSDL version 420,2013-01-30 02:19:00,
2013-01-29 20:24:00,58.6,31.1,28.67,WNW,299,3.5,5.4,35,0.00,,,0.12,WSDL version 420,2013-01-30 02:24:00,
2013-01-29 20:29:00,58.6,31.1,28.67,NW,310,2.7,5.4,35,0.00,,,0.12,WSDL version 420,2013-01-30 02:29:00,
2013-01-29 20:34:00,58.6,31.1,28.67,NW,313,3.5,4.7,35,0.00,,,0.12,WSDL version 420,2013-01-30 02:34:00,
2013-01-29 20:39:00,58.5,31.0,28.67,NW,313,2.6,4.7,35,0.00,,,0.12,WSDL version 420,2013-01-30 02:39:00,
2013-01-29 20:44:00,58.3,30.8,28.67,WNW,295,2.6,4.3,35,0.00,,,0.12,WSDL version 420,2013-01-30 02:44:00,
2013-01-29 20:49:00,58.3,30.8,28.67,WNW,300,2.9,4.0,35,0.00,,,0.12,WSDL version 420,2013-01-30 02:49:00,
2013-01-29 20:54:00,58.1,30.6,28.67,NW,307,3.6,5.6,35,0.00,,,0.12,WSDL version 420,2013-01-30 02:54:00,
2013-01-29 20:59:00,58.1,30.6,28.67,NW,305,3.7,5.6,35,0.00,,,0.12,WSDL version 420,2013-01-30 02:59:00,
2013-01-29 21:04:00,58.0,30.5,28.67,WNW,298,3.2,5.4,35,0.00,,,0.12,WSDL version 420,2013-01-30 03:04:00,
2013-01-29 21:09:00,57.9,29.9,28.67,WNW,298,3.1,4.7,34,0.00,,,0.12,WSDL version 420,2013-01-30 03:09:00,
2013-01-29 21:14:00,57.9,29.7,28.70,NW,325,3.2,4.9,34,0.00,,,0.12,WSDL version 420,2013-01-30 03:14:00,
2013-01-29 21:19:00,57.9,29.1,28.70,NW,315,3.4,5.8,33,0.00,,,0.12,WSDL version 420,2013-01-30 03:19:00,
2013-01-29 21:24:00,57.9,28.3,28.70,NW,320,4.8,7.8,31,0.00,,,0.12,WSDL version 420,2013-01-30 03:24:00,
2013-01-29 21:29:00,57.9,27.5,28.70,NW,325,4.3,7.8,31,0.00,,,0.12,WSDL version 420,2013-01-30 03:29:00,
2013-01-29 21:34:00,57.9,27.2,28.70,NW,323,3.8,6.0,30,0.00,,,0.12,WSDL version 420,2013-01-30 03:34:00,
2013-01-29 21:39:00,57.7,26.4,28.70,NNW,328,4.3,7.8,29,0.00,,,0.12,WSDL version 420,2013-01-30 03:39:00,
2013-01-29 21:49:00,57.5,25.4,28.73,NW,323,3.7,6.5,28,0.00,,,0.12,WSDL version 420,2013-01-30 03:49:00,
2013-01-29 21:54:00,57.5,24.2,28.73,NW,310,4.8,7.4,27,0.00,,,0.12,WSDL version 420,2013-01-30 03:54:00,
2013-01-29 21:59:00,57.4,23.7,28.73,NW,312,3.9,7.4,27,0.00,,,0.12,WSDL version 420,2013-01-30 03:59:00,
2013-01-29 22:04:00,57.1,23.8,28.73,NW,313,3.9,7.4,28,0.00,,,0.12,WSDL version 420,2013-01-30 04:04:00,
2013-01-29 22:09:00,57.0,24.1,28.73,NW,309,3.6,6.0,28,0.00,,,0.12,WSDL version 420,2013-01-30 04:09:00,
2013-01-29 22:14:00,56.8,23.5,28.73,West,278,3.5,6.0,28,0.00,,,0.12,WSDL version 420,2013-01-30 04:14:00,
2013-01-29 22:19:00,56.6,23.9,28.73,NW,304,3.1,5.4,28,0.00,,,0.12,WSDL version 420,2013-01-30 04:19:00,
2013-01-29 22:24:00,56.4,23.7,28.73,NW,321,2.5,4.3,28,0.00,,,0.12,WSDL version 420,2013-01-30 04:24:00,
2013-01-29 22:29:00,56.2,23.5,28.73,WNW,295,2.3,3.6,28,0.00,,,0.12,WSDL version 420,2013-01-30 04:29:00,
2013-01-29 22:34:00,56.0,23.4,28.73,NW,304,1.6,3.4,28,0.00,,,0.12,WSDL version 420,2013-01-30 04:34:00,
2013-01-29 22:39:00,55.7,23.1,28.73,WNW,293,1.7,2.7,28,0.00,,,0.12,WSDL version 420,2013-01-30 04:39:00,
2013-01-29 22:44:00,55.4,23.2,28.76,WNW,295,2.1,3.1,29,0.00,,,0.12,WSDL version 420,2013-01-30 04:44:00,
2013-01-29 22:49:00,55.1,23.5,28.76,WNW,298,1.8,3.1,29,0.00,,,0.12,WSDL version 420,2013-01-30 04:49:00,
2013-01-29 22:54:00,55.1,23.4,28.76,WNW,293,2.3,3.8,29,0.00,,,0.12,WSDL version 420,2013-01-30 04:54:00,
2013-01-29 22:59:00,55.1,22.7,28.76,NW,304,3.4,7.4,28,0.00,,,0.12,WSDL version 420,2013-01-30 04:59:00,
2013-01-29 23:04:00,55.0,22.5,28.76,NW,318,3.0,7.4,28,0.00,,,0.12,WSDL version 420,2013-01-30 05:04:00,
2013-01-29 23:09:00,55.0,22.5,28.76,NNW,328,3.9,6.3,28,0.00,,,0.12,WSDL version 420,2013-01-30 05:09:00,
2013-01-29 23:14:00,55.0,22.5,28.76,NW,320,3.1,6.3,28,0.00,,,0.12,WSDL version 420,2013-01-30 05:14:00,
2013-01-29 23:19:00,54.8,22.3,28.76,NW,315,2.7,4.9,28,0.00,,,0.12,WSDL version 420,2013-01-30 05:19:00,
2013-01-29 23:24:00,54.6,22.2,28.76,NW,318,3.0,4.9,28,0.00,,,0.12,WSDL version 420,2013-01-30 05:24:00,
2013-01-29 23:29:00,54.5,21.6,28.76,NW,323,3.4,5.6,27,0.00,,,0.12,WSDL version 420,2013-01-30 05:29:00,
2013-01-29 23:34:00,54.4,21.1,28.76,NW,309,2.7,5.6,27,0.00,,,0.12,WSDL version 420,2013-01-30 05:34:00,
2013-01-29 23:39:00,54.2,21.0,28.76,NW,305,2.6,4.0,27,0.00,,,0.12,WSDL version 420,2013-01-30 05:39:00,
2013-01-29 23:44:00,54.0,20.8,28.76,WNW,298,2.3,4.0,27,0.00,,,0.12,WSDL version 420,2013-01-30 05:44:00,
2013-01-29 23:49:00,53.9,20.7,28.76,NW,308,2.4,5.6,27,0.00,,,0.12,WSDL version 420,2013-01-30 05:49:00,
2013-01-29 23:54:00,53.7,20.5,28.76,NW,323,2.2,5.6,27,0.00,,,0.12,WSDL version 420,2013-01-30 05:54:00,
2013-01-29 23:59:00,53.5,20.7,28.76,NW,310,2.5,4.0,28,0.00,,,0.12,WSDL version 420,2013-01-30 05:59:00,